Location: Azzano
(45.3667°N, 10.9333°E)
Time: 22:00:48
(UTC+00:00)

Daily predictions for brighter satellites

Satellite Brightness Start Highest point End
(mag) Time Altitude Azimuth Time Altitude Azimuth Time Altitude Azimuth
Ariane Rocket 4.4 17:10:13 10° ESE 17:13:42 19° ENE 17:17:12 10° NNE
STARLINK-74 4.4 17:10:56 10° SSW 17:14:35 34° SE 17:18:16 10° ENE
Lacrosse 4 Rocket 1.5 17:10:31 10° SSW 17:14:39 63° ESE 17:18:55 10° NE
STARLINK-80 4.3 17:11:23 10° W 17:15:04 44° NNW 17:18:46 10° NE
Cosmos 968 Rocket 3.6 17:10:45 10° NNW 17:15:59 84° WSW 17:21:12 10° SSE
STARLINK-39 4.4 17:12:35 10° SSW 17:16:15 35° SE 17:19:57 10° ENE
Cosmos 921 Rocket 4.3 17:13:46 10° SE 17:17:10 22° E 17:20:37 10° NE
STARLINK-31 4.3 17:14:12 10° SSW 17:17:54 36° SE 17:21:38 10° ENE
STARLINK-69 4.2 17:15:55 10° SSW 17:19:42 41° SE 17:23:30 10° ENE
CZ-2D R/B 4.0 17:17:09 10° SE 17:20:40 33° ENE 17:24:11 10° N
STARLINK-21 4.2 17:17:27 10° SSW 17:21:12 39° SE 17:24:58 10° ENE
Cosmos 2369 Rocket 3.3 17:17:06 10° SSE 17:21:22 23° E 17:25:41 10° NE
Cosmos 2016 Rocket 4.0 17:15:37 10° S 17:21:33 58° E 17:27:33 10° NNE
Cosmos 1812 3.8 17:19:46 10° NNE 17:23:01 25° ENE 17:26:14 10° SE
STARLINK-45 4.0 17:19:12 10° SSW 17:23:02 44° SE 17:26:53 10° ENE
STARLINK-70 4.1 17:20:47 10° SSW 17:24:36 44° SE 17:28:27 10° ENE
YAOGAN 1 2.7 17:21:49 10° SSE 17:25:59 50° ENE 17:30:12 10° N
STARLINK-76 4.1 17:22:20 10° SSW 17:26:09 43° SE 17:29:58 10° ENE
STARLINK-23 4.0 17:23:58 10° SSW 17:27:47 44° SE 17:31:38 10° ENE
STARLINK-32 4.0 17:25:37 10° SSW 17:29:27 45° SE 17:33:19 10° ENE
Cosmos 2082 Rocket 3.3 17:24:17 10° NW 17:29:44 50° WSW 17:35:10 10° S
STARLINK-40 4.0 17:27:14 10° SW 17:31:05 47° SE 17:34:54 10° ENE
STARLINK-33 3.0 17:27:52 10° SW 17:31:08 82° SSE 17:34:25 10° ENE
SKYMED 2 3.6 17:28:04 10° NNE 17:32:26 87° ESE 17:36:47 10° SSW
STARLINK-44 3.9 17:28:51 10° SW 17:32:43 48° SE 17:36:29 11° ENE
STARLINK-66 3.0 17:29:41 10° SW 17:32:57 87° SSE 17:36:11 10° ENE
STARLINK-55 3.0 17:30:44 10° WSW 17:34:01 90° N 17:37:12 11° ENE
Cosmos 1633 Rocket 3.6 17:30:23 10° SSE 17:34:17 34° E 17:38:13 10° NNE
STARLINK-37 3.8 17:30:35 10° SW 17:34:29 52° SE 17:38:13 11° ENE
STARLINK-28 3.0 17:32:26 10° WSW 17:35:42 82° NNW 17:38:51 11° ENE
STARLINK-36 3.8 17:32:08 10° SW 17:36:02 51° SE 17:39:40 12° ENE
STARLINK-26 4.0 17:34:29 10° W 17:37:50 46° NNW 17:41:12 10° NE
STARLINK-68 3.7 17:33:55 10° SW 17:37:51 58° SE 17:41:29 12° ENE
Cosmos 1666 Rocket 3.9 17:33:50 10° SSE 17:38:06 46° E 17:42:24 10° NNE
Cosmos 2233 Rocket 4.3 17:32:54 10° SSE 17:38:33 40° E 17:44:15 10° NNE
STARLINK-63 3.7 17:35:29 10° SW 17:39:25 57° SE 17:42:58 12° ENE
STARLINK-35 3.7 17:37:02 10° SW 17:40:58 56° SE 17:44:26 13° ENE
Cosmos 292 Rocket 4.1 17:37:11 10° SSW 17:41:59 73° WNW 17:46:48 10° NNE
STARLINK-51 3.7 17:38:42 10° SW 17:42:39 58° SE 17:46:04 14° ENE
CZ-4 R/B 1.6 17:38:34 10° SSE 17:42:47 84° WSW 17:46:59 10° NNW
STARLINK-75 3.1 17:40:01 10° WSW 17:43:26 87° NW 17:46:26 13° ENE
STARLINK-30 3.7 17:40:20 10° SW 17:44:17 60° SE 17:47:38 14° ENE
Lacrosse 5 rocket 3.3 17:41:24 10° WNW 17:45:06 25° NNW 17:48:56 10° NE
Meteor 1-27 Rocket 3.8 17:40:21 10° N 17:45:45 51° ENE 17:51:11 10° SSE
STARLINK-72 3.6 17:41:58 10° SW 17:45:56 62° SE 17:49:14 14° ENE
Cosmos 1939 Rocket 2.9 17:41:56 10° SSE 17:46:01 68° ENE 17:50:09 10° N
STARLINK-1023 3.4 17:43:45 10° SSW 17:46:37 39° SE 17:48:29 18° E
STARLINK-50 3.6 17:43:36 10° SW 17:47:35 64° SE 17:50:49 15° ENE
STARLINK-22 3.0 17:44:51 10° SW 17:48:16 83° SE 17:50:58 16° ENE
STARLINK-59 3.5 17:45:20 10° SW 17:49:19 68° SE 17:52:31 15° ENE
STARLINK 1040 2.9 17:46:58 10° SW 17:49:42 49° SE 17:51:18 21° ENE
STARLINK-41 3.1 17:46:17 10° WSW 17:49:43 90° N 17:52:23 16° ENE
STARLINK-42 3.0 17:47:02 10° WSW 17:50:17 77° NNW 17:52:46 16° NE
STARLINK-56 3.5 17:46:53 10° SW 17:50:52 67° SE 17:53:59 16° ENE
STARLINK-73 3.5 17:48:33 10° SW 17:52:32 69° SE 17:55:35 17° ENE
Aureole 2 Rocket 2.9 17:51:08 10° SSE 17:53:18 23° ESE 17:53:24 23° E
STARLINK-38 3.5 17:50:12 10° SW 17:54:12 71° SE 17:57:11 17° ENE
STARLINK-1014 3.7 17:51:34 10° SSW 17:54:47 40° SE 17:56:35 21° E
Cosmos 1633 3.7 17:51:24 10° SSW 17:54:51 47° WNW 17:58:22 10° N
STARLINK-1007 3.2 17:51:58 10° SW 17:54:58 48° SE 17:56:36 23° ENE
CSL-04 Rocket 3.7 17:49:51 10° SSE 17:55:25 87° ENE 18:00:57 10° NNW
STARLINK-65 3.5 17:51:49 10° SW 17:55:50 73° SE 17:58:44 18° ENE
Cosmos 1238 Rocket 4.3 17:50:54 10° SSW 17:57:07 73° W 18:03:48 10° N
STARLINK-53 3.5 17:53:33 10° SW 17:57:34 78° SE 18:00:27 18° ENE
STARLINK-61 3.7 17:53:57 10° WSW 17:57:51 67° NNW 18:00:50 16° NE
ARGOS 4.0 17:54:51 11° ESE 17:59:10 28° ENE 18:03:42 10° N
STARLINK-1010 2.9 18:01:30 10° SW 18:04:34 59° SE 18:05:52 30° ENE
Cosmos 2242 Rocket 4.3 18:01:04 10° N 18:05:08 32° ENE 18:08:33 13° SE
USA 116 3.9 18:02:09 10° N 18:05:57 76° WNW 18:10:15 10° SSW
NOSS 3-1 (C) 3.2 18:02:08 10° SSW 18:07:34 77° SE 18:13:55 10° NE
IRS-1A Rocket 4.4 18:02:50 10° SE 18:08:08 50° ENE 18:13:28 10° N
CSL-04 Debris 4.5 18:02:53 10° S 18:08:19 73° WSW 18:13:48 10° NNW
STARLINK-60 3.4 18:05:10 10° NW 18:08:22 47° NNE 18:09:30 32° E
Cosmos 1607 4.3 18:03:39 10° NW 18:09:56 71° WSW 18:16:15 10° SSE
USA 267 4.3 18:10:35 20° E 18:12:37 23° SE 18:17:36 10° S
STARLINK-1008 2.8 18:09:29 10° SW 18:12:38 71° SE 18:13:42 37° ENE
STARLINK-58 3.4 18:09:52 10° WSW 18:13:24 69° NNW 18:15:13 27° NE
STARLINK-1016 2.8 18:10:32 10° SW 18:13:40 72° SE 18:14:40 39° ENE
STARLINK-1025 2.8 18:11:40 10° SW 18:14:50 74° SE 18:15:49 40° ENE
STARLINK-62 3.4 18:11:35 10° WSW 18:15:06 66° NNW 18:16:52 27° NE
Cosmos 1777 Rocket 3.9 18:09:50 10° NNW 18:15:09 81° ENE 18:20:26 10° SSE
STARLINK-1017 2.8 18:12:47 10° SW 18:15:56 76° SE 18:16:52 41° ENE
STARLINK-34 3.5 18:13:10 10° WSW 18:16:42 64° NNW 18:18:24 28° NE
OE (NEXTSAT) 4.3 18:13:24 10° WSW 18:16:54 77° SSE 18:18:03 39° E
Sich 1 4.1 18:13:02 10° SSW 18:17:11 47° WNW 18:21:20 10° N
SJ-11-01 4.3 18:13:23 10° SSE 18:17:58 58° ENE 18:22:34 10° N
Cosmos 1470 Rocket 3.6 18:13:51 10° S 18:18:04 55° E 18:22:22 10° NNE
STARLINK-1034 4.5 18:14:57 10° SSW 18:18:35 31° SE 18:19:11 29° ESE
STARLINK-1048 2.8 18:16:08 10° SW 18:19:18 81° SSE 18:20:08 46° ENE
STARLINK-1029 2.9 18:16:38 10° SW 18:19:45 61° SE 18:20:19 49° E
STARLINK-1028 2.8 18:17:11 10° SW 18:20:22 83° SE 18:21:10 47° ENE
STARLINK-1049 2.8 18:17:17 10° SW 18:20:27 83° SSE 18:21:14 48° ENE
STARLINK-1031 4.2 18:17:37 10° SSW 18:21:15 35° SE 18:21:48 33° ESE
STARLINK-1021 2.8 18:18:22 10° SW 18:21:34 85° SSE 18:22:20 49° ENE
STARLINK-1051 2.8 18:18:26 10° SW 18:21:38 85° SSE 18:22:23 49° ENE
STARLINK-1019 2.8 18:19:36 10° SW 18:22:47 87° SSE 18:23:30 51° ENE
STARLINK-1068 4.3 18:19:48 10° SSW 18:23:31 33° SE 18:23:57 32° ESE
STARLINK-1012 2.8 18:20:49 10° WSW 18:24:01 89° SSE 18:24:41 53° ENE
Cosmos 1862 Rocket 3.4 18:20:31 10° N 18:24:52 84° E 18:29:13 10° S
Cosmos 44 3.2 18:21:44 10° NNW 18:26:01 52° NE 18:27:30 36° ESE
STARLINK-1026 2.8 18:23:15 10° WSW 18:26:28 87° NNW 18:27:03 56° NE
STARLINK-1013 2.8 18:24:31 10° WSW 18:27:43 85° NW 18:28:16 58° NE
STARLINK-24 3.7 18:24:40 10° WSW 18:28:40 67° NNW 18:30:20 33° NE
STARLINK-1009 2.9 18:25:45 10° WSW 18:28:57 83° NW 18:29:27 60° NE
STARLINK-1015 2.9 18:27:01 10° WSW 18:30:13 82° NW 18:30:41 62° NE
Cosmos 1943 Rocket 2.2 18:24:56 10° SSW 18:30:31 83° WNW 18:36:07 10° NNE
HJ-1C 3.7 18:29:03 10° S 18:32:20 66° W 18:35:38 10° NNW
SJ-6B 3.6 18:34:18 32° NNE 18:34:18 32° NNE 18:36:49 10° N
STARLINK-1060 4.1 18:29:33 10° SSW 18:33:26 40° SE 18:33:32 39° SE
STARLINK-81 3.8 18:33:03 10° WSW 18:37:03 64° NNW 18:38:19 40° NE
STARLINK-1030 4.0 18:34:28 10° SSW 18:38:19 43° SE 18:38:19 43° SE
STARLINK-54 3.9 18:34:56 10° WSW 18:38:55 59° NNW 18:40:09 39° NNE
STARLINK-1047 4.0 18:35:20 10° SSW 18:39:18 45° SE 18:39:18 45° SE
STARLINK-1035 3.8 18:35:28 10° SW 18:39:35 50° SE 18:39:48 50° SE
SL-4 R/B 4.0 18:35:37 10° WNW 18:39:41 29° SW 18:43:03 12° S
NOSS 2-3 (E) 3.6 18:35:43 10° SSW 18:39:55 62° ESE 18:41:17 42° ENE
STARLINK-77 3.9 18:36:23 10° WSW 18:40:22 61° NNW 18:41:30 42° NNE
SL-27 R/B 3.5 18:37:21 10° NNW 18:40:33 43° WSW 18:43:13 13° S
Cosmos 1703 Rocket 3.9 18:36:50 10° N 18:40:43 44° ENE 18:40:43 44° ENE
Cosmos 1464 Rocket 4.1 18:35:26 10° SSE 18:41:29 50° E 18:47:37 10° NNE
STARLINK-25 3.9 18:38:03 10° WSW 18:42:01 60° NNW 18:43:06 42° NNE
ADEOS Rocket 3.8 18:34:45 10° N 18:42:28 73° WNW 18:50:09 10° SSW
BREEZE-M DEB (TANK) 3.3 18:40:02 10° WNW 18:42:57 86° SSW 18:45:03 37° ESE
STARLINK-1020 4.0 18:39:23 10° SSW 18:43:06 46° SSE 18:43:06 46° SSE
Cosmos 1340 2.6 18:39:53 10° SSW 18:43:39 82° W 18:47:26 10° N
STARLINK-71 4.0 18:39:57 10° WSW 18:43:54 55° NNW 18:44:56 41° NNE
Cosmos 2285 Rocket 3.9 18:38:22 10° NNW 18:44:47 81° ENE 18:50:08 15° SSE
STARLINK-79 4.0 18:41:22 10° WSW 18:45:20 57° NNW 18:46:16 44° NNE
STARLINK-78 4.0 18:43:03 10° WSW 18:47:01 56° NNW 18:47:53 45° NNE
H-2A R/B 2.0 18:42:36 12° SSE 18:47:34 78° ENE 18:53:01 10° N
Nadezhda 4 Rocket 4.4 18:42:08 10° N 18:48:01 40° ENE 18:48:26 39° E
BREEZE-M DEB (TANK) 3.8 18:45:51 10° WNW 18:47:39 35° NNW 18:47:39 35° NNW
USA 234 4.0 18:45:38 28° ENE 18:48:12 39° NNE 18:54:10 10° NW
STARLINK-1052 3.9 18:44:18 10° SW 18:47:53 49° SSE 18:47:53 49° SSE
STARLINK-64 4.2 18:44:57 10° W 18:48:20 39° NNW 18:48:49 37° N
STARLINK-57 4.1 18:44:48 10° WSW 18:48:45 53° NNW 18:49:33 44° NNE
STARLINK-1027 3.6 18:45:56 10° SW 18:50:06 64° SSE 18:50:06 64° SSE
STARLINK-49 4.1 18:46:22 10° WSW 18:50:19 54° NNW 18:51:02 46° NNE
STARLINK-27 4.1 18:48:03 10° WSW 18:52:00 52° NNW 18:52:39 46° N
Ariane Rocket 3.3 18:47:06 10° S 18:52:09 66° WSW 18:57:16 10° NNW
STARLINK-74 4.1 18:49:41 10° WSW 18:53:37 51° NNW 18:54:13 47° N
Lacrosse 4 Rocket 4.0 18:50:45 10° W 18:53:46 19° NW 18:56:51 10° N
NOSS 2-3 (D) 3.5 18:50:29 10° SSW 18:54:45 78° SE 18:55:25 63° ENE
Cosmos 921 Rocket 4.4 18:50:56 10° SW 18:55:12 41° WNW 18:59:29 10° N
STARLINK-39 4.1 18:51:23 10° W 18:55:18 50° NNW 18:55:49 47° N
Okean 1-7 3.9 18:51:24 10° N 18:54:07 35° NNE 18:54:07 35° NNE
USA 229 DEB 4.1 18:50:06 10° SW 18:56:35 59° NW 19:03:04 11° NNE
USA 229 4.1 18:50:13 10° SW 18:56:41 59° NW 19:03:08 12° NNE
STARLINK-31 4.1 18:53:03 10° W 18:56:58 49° NNW 18:57:25 47° N
STARLINK-1033 4.1 18:54:08 10° SW 18:57:25 49° S 18:57:25 49° S
CZ-2C R/B 3.2 18:54:04 19° SSE 18:58:21 80° ENE 19:04:09 10° N
BREEZE-M DEB (TANK) 4.4 18:27:00 10° W 18:58:34 72° NNW 19:01:29 37° ENE
STARLINK-69 4.2 18:54:56 10° W 18:58:49 46° NNW 18:59:13 44° N
Cosmos 724 4.2 18:52:59 10° NW 18:58:50 88° SW 19:00:59 41° SSE
Cosmos 2034 Rocket 4.2 18:53:29 10° SSE 19:00:13 45° ENE 19:05:13 10° NNE
STARLINK-21 4.2 18:56:24 10° W 19:00:18 47° NNW 19:00:37 46° N
SJ 16-02 3.0 18:56:43 10° N 18:58:44 23° NNE 18:58:44 23° NNE
Cosmos 1346 Rocket 3.1 18:57:39 10° SSW 19:01:37 65° WNW 19:05:35 10° N
STARLINK-45 4.3 18:58:20 10° W 19:02:12 44° NNW 19:02:27 43° N
NOSS 3-1 (A) 3.4 18:58:03 10° SW 19:03:34 73° NW 19:07:45 22° NNE
STARLINK-70 4.3 18:59:54 10° W 19:03:46 44° NNW 19:03:56 44° NNW
Cosmos 2369 Rocket 2.7 18:59:21 10° SW 19:04:56 59° WNW 19:10:34 10° NNE
STARLINK-76 4.3 19:01:25 10° W 19:05:18 45° NNW 19:05:23 45° NNW
MOS 1 4.4 18:59:41 10° S 19:05:20 73° WSW 19:11:01 10° NNW
STARLINK-23 4.4 19:03:05 10° W 19:06:57 44° NNW 19:06:59 44° NNW
Cosmos 1833 4.1 19:01:59 10° NNW 19:07:47 89° WSW 19:09:23 50° SSE
STARLINK-1024 4.4 19:04:04 10° SW 19:07:02 45° SW 19:07:02 45° SW
STARLINK-32 4.4 19:04:47 10° W 19:08:35 43° NNW 19:08:35 43° NNW
Cosmos 1656 Rocket 3.5 19:04:21 10° SSW 19:09:49 77° ESE 19:10:50 59° NE
STARLINK-40 4.5 19:06:25 10° W 19:10:09 42° NNW 19:10:09 42° NNW
Cosmos 1933 Rocket 4.4 19:12:11 10° SSW 19:16:28 49° WNW 19:20:46 10° N
SL-08 RB Rocket 4.2 19:17:47 52° NNW 19:17:47 52° NNW 19:21:13 10° NNW
Meteor 1-18 Rocket 4.2 19:10:48 10° N 19:16:47 84° E 19:17:55 60° SSE
CENTAUR R/B 4.3 19:19:08 10° NNW 19:25:12 25° NNE 19:26:39 24° NE
Lacrosse 5 rocket 3.6 19:22:20 10° NW 19:25:18 19° N 19:25:18 19° N
SPOT 3 Rocket 3.6 19:28:41 75° WSW 19:28:45 75° WSW 19:33:59 10° NNW
NOSS 2-3 (C) 4.3 19:24:48 10° SW 19:29:03 55° NW 19:29:03 55° NW
MetOp-A 4.3 19:33:19 66° NNW 19:33:19 66° NNW 19:37:54 10° NNW
ATLAS 3B R/B 4.4 19:28:07 10° NNW 19:32:32 18° NNE 19:33:27 17° NNE
ARGOS 4.1 19:36:21 25° SSW 19:39:10 46° W 19:44:25 10° NNW
Resurs 01 Rocket 3.9 19:42:59 17° N 19:42:59 17° N 19:44:02 10° N
Cosmos 2297 Rocket 4.1 19:43:47 10° N 19:45:46 19° N 19:45:46 19° N
USA 267 3.6 19:57:58 53° SW 19:57:58 53° SW 20:02:49 10° SW
Cosmos 2227 Rocket 4.3 20:01:31 10° N 20:03:09 18° N 20:03:09 18° N
USA 234 4.1 20:32:59 45° NW 20:32:59 45° NW 20:37:19 10° NW
CENTAUR R/B 4.3 21:09:47 10° NW 21:13:50 33° NNW 21:13:50 33° NNW
